Flight Track Log - Related Links

Times and Time Zones

All times are in EDT time to prevent confusion due to time zone crossing. See the SWA896 flight status page for this flight to view local times or setup timezone preferences in your user account.

Time Position Orientation Groundspeed Altitude Reporting Facility
EDT Latitude Longitude Course Direction KTS MPH feet Rate Location/Type
Wed 08:10:33 AM 42.9333 -78.7500 202° Southwest 174 200 1,800  Level Buffalo TRACON
Wed 08:11:03 AM 42.9167 -78.7667 216° Southwest 169 194 2,800 2,250 Climbing Buffalo TRACON
Wed 08:12:33 AM 42.8117 -78.8369 206° Southwest 298 343 6,300 2,440 Climbing Cleveland Center
Wed 08:13:33 AM 42.7372 -78.8731 200° South 290 334 8,900 2,400 Climbing Cleveland Center
Wed 08:14:33 AM 42.6586 -78.9033 196° South 290 334 11,100 2,200 Climbing Cleveland Center
Wed 08:15:33 AM 42.5633 -78.9511 200° South 327 376 13,300 2,350 Climbing Cleveland Center
Wed 08:16:00 AM 42.3203 -79.0430 202° Southwest  Level FlightAware Approximate
Wed 08:16:33 AM 42.4769 -79.0264 213° Southwest 368 423 15,800  Level Cleveland Center
Wed 08:17:33 AM 42.4308 -79.1711 247° West 411 473 17,900 1,800 Climbing Cleveland Center
Wed 08:18:33 AM 42.3908 -79.3125 249° West 404 465 19,400 1,750 Climbing Cleveland Center
Wed 08:19:33 AM 42.3503 -79.4425 247° West 419 482 21,400 1,850 Climbing Cleveland Center
Wed 08:20:33 AM 42.3081 -79.5892 249° West 425 489 23,100 1,750 Climbing Cleveland Center
Wed 08:21:33 AM 42.2947 -79.7664 264° West 430 495 24,900 1,600 Climbing Cleveland Center
Wed 08:22:33 AM 42.2939 -79.9375 270° West 442 509 26,300 1,350 Climbing Cleveland Center
Wed 08:23:33 AM 42.2883 -80.1006 267° West 442 509 27,600 1,350 Climbing Cleveland Center
Wed 08:24:33 AM 42.2847 -80.2717 268° West 442 509 29,000 1,450 Climbing Cleveland Center
Wed 08:25:33 AM 42.2808 -80.4400 268° West 462 532 30,500 1,350 Climbing Cleveland Center
Wed 08:26:33 AM 42.2767 -80.6083 268° West 456 525 31,700 1,150 Climbing Cleveland Center
Wed 08:27:33 AM 42.2725 -80.7797 268° West 461 531 32,800 1,050 Climbing Cleveland Center
Wed 08:28:33 AM 42.2658 -80.9478 267° West 456 525 33,800 950 Climbing Cleveland Center
Wed 08:29:33 AM 42.2608 -81.1189 268° West 456 525 34,700 900 Climbing Cleveland Center
Wed 08:30:33 AM 42.2539 -81.2675 266° West 456 525 35,600 650 Climbing Cleveland Center
Wed 08:31:33 AM 42.2506 -81.4358 269° West 456 525 36,000 200 Climbing Cleveland Center
Wed 08:32:33 AM 42.2453 -81.6014 268° West 451 519 36,000  Level Cleveland Center
Wed 08:33:33 AM 42.2372 -81.7667 266° West 451 519 36,000  Level Cleveland Center
Wed 08:34:33 AM 42.2314 -81.9292 267° West 446 513 36,000  Level Cleveland Center
Wed 08:35:33 AM 42.2250 -82.0944 267° West 441 507 36,000  Level Cleveland Center
Wed 08:36:33 AM 42.2167 -82.2569 266° West 441 507 36,000  Level Cleveland Center
Wed 08:37:33 AM 42.2100 -82.4222 267° West 441 507 36,000  Level Cleveland Center
Wed 08:38:33 AM 42.2008 -82.5900 266° West 441 507 36,000  Level Cleveland Center
Wed 08:39:33 AM 42.1936 -82.7525 267° West 441 507 36,000  Level Cleveland Center
Wed 08:40:33 AM 42.1864 -82.9175 267° West 441 507 36,000  Level Cleveland Center
Wed 08:41:33 AM 42.1767 -83.0825 266° West 441 507 36,000  Level Cleveland Center
Wed 08:42:33 AM 42.1683 -83.2669 267° West 441 507 36,000  Level Cleveland Center
Wed 08:43:33 AM 42.1600 -83.4375 266° West 446 513 36,000  Level Cleveland Center
Wed 08:44:33 AM 42.1475 -83.6050 264° West 446 513 36,000  Level Cleveland Center
Wed 08:45:33 AM 42.1408 -83.7700 267° West 452 520 36,000  Level Cleveland Center
Wed 08:46:33 AM 42.1319 -83.9375 266° West 452 520 36,000  Level Cleveland Center
Wed 08:47:33 AM 42.1208 -84.1022 265° West 452 520 36,000  Level Cleveland Center
Wed 08:48:33 AM 42.1133 -84.2669 267° West 447 514 36,000  Level Cleveland Center
Wed 08:51:01 AM 42.0919 -84.6450 266° West 443 510 36,000  Level Chicago Center
Wed 08:52:03 AM 42.0811 -84.8106 265° West 443 510 36,000  Level Chicago Center
Wed 08:53:04 AM 42.0683 -85.0089 265° West 442 509 36,000  Level Chicago Center
Wed 08:54:06 AM 42.0569 -85.1758 265° West 447 514 36,000  Level Chicago Center
Wed 08:55:08 AM 42.0456 -85.3417 265° West 445 512 36,000  Level Chicago Center
Wed 08:56:10 AM 42.0336 -85.5078 265° West 447 514 36,000  Level Chicago Center
Wed 08:57:11 AM 42.0211 -85.6744 264° West 448 516 36,000  Level Chicago Center
Wed 08:58:13 AM 42.0086 -85.8572 265° West 451 519 36,000  Level Chicago Center
Wed 08:59:15 AM 41.9958 -86.0233 264° West 451 519 36,000  Level Chicago Center
Wed 09:00:17 AM 41.9831 -86.1911 264° West 453 521 36,000  Level Chicago Center
Wed 09:01:19 AM 41.9706 -86.3589 264° West 454 522 36,000  Level Chicago Center
Wed 09:02:20 AM 41.9561 -86.5272 263° West 455 524 36,000  Level Chicago Center
Wed 09:03:22 AM 41.9433 -86.7086 265° West 457 526 36,000  Level Chicago Center
Wed 09:04:24 AM 41.9289 -86.8733 263° West 449 517 36,000  Level Chicago Center
Wed 09:05:26 AM 41.9114 -87.0725 263° West 451 519 36,000  Level Chicago Center
Wed 09:06:28 AM 41.8978 -87.2342 264° West 442 509 36,000  Level Chicago Center
Wed 09:07:29 AM 41.8839 -87.3969 264° West 442 509 36,000  Level Chicago Center
Wed 09:08:31 AM 41.8686 -87.5542 263° West 432 497 36,000  Level Chicago Center
Wed 09:09:33 AM 41.8542 -87.7142 263° West 436 502 36,000  Level Chicago Center
Wed 09:10:35 AM 41.8367 -87.9081 263° West 441 507 36,000  Level Chicago Center
Wed 09:11:37 AM 41.8222 -88.0683 263° West 442 509 36,000  Level Chicago Center
Wed 09:12:39 AM 41.8075 -88.2264 263° West 435 501 36,000  Level Chicago Center
Wed 09:13:41 AM 41.7917 -88.3867 263° West 439 505 36,000  Level Chicago Center
Wed 09:14:43 AM 41.7722 -88.5789 262° West 441 507 36,000  Level Chicago Center
Wed 09:15:45 AM 41.7569 -88.7392 263° West 440 506 36,000  Level Chicago Center
Wed 09:16:47 AM 41.7403 -88.8981 262° West 436 502 36,000  Level Chicago Center
Wed 09:17:49 AM 41.7239 -89.0575 262° West 436 502 36,000  Level Chicago Center
Wed 09:18:51 AM 41.7081 -89.2186 263° West 439 505 36,000  Level Chicago Center
Wed 09:19:53 AM 41.6883 -89.4106 262° West 438 504 36,000  Level Chicago Center
Wed 09:20:54 AM 41.6739 -89.5581 263° West 436 502 36,000  Level Chicago Center
Wed 09:21:56 AM 41.6556 -89.7161 261° West 435 501 36,000  Level Chicago Center
Wed 09:22:58 AM 41.6392 -89.8761 262° West 436 502 36,000  Level Chicago Center
Wed 09:24:00 AM 41.6178 -90.0658 261° West 435 501 36,000  Level Chicago Center
Wed 09:25:02 AM 41.6011 -90.2250 262° West 436 502 36,000  Level Chicago Center
Wed 09:26:04 AM 41.5800 -90.3892 260° West 448 516 36,000  Level Chicago Center
Wed 09:27:06 AM 41.5628 -90.5475 262° West 437 503 36,000  Level Chicago Center
Wed 09:28:08 AM 41.5436 -90.7092 261° West 438 504 36,000  Level Chicago Center
Wed 09:29:11 AM 41.5244 -90.8689 261° West 438 504 36,000  Level Chicago Center
Wed 09:30:13 AM 41.5019 -91.0594 261° West 438 504 36,000  Level Chicago Center
Wed 09:31:15 AM 41.4814 -91.2192 260° West 439 505 36,000  Level Chicago Center
Wed 09:32:17 AM 41.4628 -91.3794 261° West 439 505 36,000  Level Chicago Center
Wed 09:33:19 AM 41.4419 -91.5386 260° West 438 504 36,000  Level Chicago Center
Wed 09:34:21 AM 41.4219 -91.6981 261° West 439 505 36,000  Level Chicago Center
Wed 09:35:23 AM 41.3983 -91.8889 261° West 437 503 36,000  Level Chicago Center
Wed 09:36:25 AM 41.3781 -92.0469 260° West 437 503 36,000  Level Chicago Center
Wed 09:37:27 AM 41.3569 -92.2044 260° West 436 502 36,000  Level Chicago Center
Wed 09:38:29 AM 41.3358 -92.3589 260° West 429 494 36,000  Level Chicago Center
Wed 09:39:31 AM 41.3142 -92.5169 260° West 427 491 36,000  Level Chicago Center
Wed 09:40:33 AM 41.2939 -92.6756 260° West 434 499 36,000  Level Chicago Center
Wed 09:40:50 AM 41.2858 -92.7400 261° West 435 501 36,000  Level Minneapolis Center
Wed 09:41:52 AM 41.2642 -92.8931 259° West 431 496 36,000  Level Minneapolis Center
Wed 09:42:53 AM 41.2425 -93.0483 260° West 431 496 36,000  Level Minneapolis Center
Wed 09:43:54 AM 41.2214 -93.2050 260° West 433 498 36,000  Level Minneapolis Center
Wed 09:44:56 AM 41.1947 -93.3897 259° West 432 497 36,000  Level Minneapolis Center
Wed 09:45:57 AM 41.1725 -93.5456 259° West 433 498 36,000  Level Minneapolis Center
Wed 09:46:59 AM 41.1506 -93.6992 259° West 430 495 36,000  Level Minneapolis Center
Wed 09:48:00 AM 41.1292 -93.8469 259° West 423 487 36,000  Level Minneapolis Center
Wed 09:49:01 AM 41.1075 -94.0008 259° West 427 491 36,000  Level Minneapolis Center
Wed 09:50:03 AM 41.0853 -94.1542 259° West 427 491 36,000  Level Minneapolis Center
Wed 09:51:04 AM 41.0617 -94.3072 258° West 428 493 36,000  Level Minneapolis Center
Wed 09:52:06 AM 41.0328 -94.4894 258° West 428 493 36,000  Level Minneapolis Center
Wed 09:53:07 AM 41.0114 -94.6236 258° West 427 491 36,000  Level Minneapolis Center
Wed 09:54:09 AM 40.9833 -94.8078 259° West 425 489 36,000  Level Minneapolis Center
Wed 09:55:10 AM 40.9583 -94.9606 258° West 425 489 36,000  Level Minneapolis Center
Wed 09:56:11 AM 40.9350 -95.1128 259° West 423 487 36,000  Level Minneapolis Center
Wed 09:57:13 AM 40.9111 -95.2644 258° West 421 484 36,000  Level Minneapolis Center
Wed 09:58:14 AM 40.8867 -95.4153 258° West 419 482 36,000  Level Minneapolis Center
Wed 09:59:16 AM 40.8625 -95.5667 258° West 418 481 36,000  Level Minneapolis Center
Wed 10:00:17 AM 40.8375 -95.7169 258° West 417 480 36,000  Level Minneapolis Center
Wed 10:01:19 AM 40.8131 -95.8661 258° West 415 478 36,000  Level Minneapolis Center
Wed 10:02:20 AM 40.7875 -96.0158 257° West 415 478 36,000  Level Minneapolis Center
Wed 10:03:21 AM 40.7628 -96.1658 258° West 415 478 36,000  Level Minneapolis Center
Wed 10:04:23 AM 40.7383 -96.3142 258° West 414 476 36,000  Level Minneapolis Center
Wed 10:05:24 AM 40.7128 -96.4606 257° West 413 475 36,000  Level Minneapolis Center
Wed 10:06:25 AM 40.6831 -96.6358 257° West 410 472 36,000  Level Minneapolis Center
Wed 10:07:27 AM 40.6578 -96.7811 257° West 408 470 36,000  Level Minneapolis Center
Wed 10:08:28 AM 40.6289 -96.9250 255° West 407 468 36,000  Level Minneapolis Center
Wed 10:09:30 AM 40.5786 -97.0572 243° Southwest 405 466 36,000  Level Minneapolis Center
Wed 10:10:31 AM 40.5328 -97.1908 246° West 403 464 36,000  Level Minneapolis Center
Wed 10:11:32 AM 40.4900 -97.3250 247° West 400 460 36,000  Level Minneapolis Center
Wed 10:12:34 AM 40.4467 -97.4625 248° West 401 461 36,000  Level Minneapolis Center
Wed 10:13:47 AM 40.4122 -97.6050 252° West 406 467 36,000  Level Minneapolis Center
Wed 10:14:49 AM 40.3839 -97.7783 258° West 405 466 36,000  Level Minneapolis Center
Wed 10:15:50 AM 40.3592 -97.9203 257° West 400 460 36,000  Level Minneapolis Center
Wed 10:16:52 AM 40.3286 -98.0922 257° West 401 461 36,000  Level Minneapolis Center
Wed 10:17:53 AM 40.3078 -98.2058 257° West 401 461 36,000  Level Minneapolis Center
Wed 10:18:55 AM 40.2769 -98.3747 257° West 397 457 36,000  Level Minneapolis Center
Wed 10:19:56 AM 40.2514 -98.5186 257° West 401 461 36,000  Level Minneapolis Center
Wed 10:20:58 AM 40.2253 -98.6594 256° West 398 458 36,000  Level Minneapolis Center
Wed 10:21:59 AM 40.1983 -98.8011 256° West 400 460 36,000  Level Minneapolis Center
Wed 10:23:01 AM 40.1725 -98.9425 257° West 399 459 36,000  Level Minneapolis Center
Wed 10:24:02 AM 40.1464 -99.0822 256° West 396 456 36,000  Level Minneapolis Center
Wed 10:25:07 AM 40.1200 -99.2219 256° West 395 455 36,000  Level Denver Center
Wed 10:26:08 AM 40.0883 -99.3878 256° West 394 453 36,000  Level Denver Center
Wed 10:27:10 AM 40.0619 -99.5269 256° West 394 453 36,000  Level Denver Center
Wed 10:28:12 AM 40.0358 -99.6642 256° West 391 450 36,000  Level Denver Center
Wed 10:29:25 AM 40.0086 -99.8011 255° West 388 447 36,000  Level Denver Center
Wed 10:30:27 AM 39.9767 -99.9642 256° West 387 445 36,000  Level Denver Center
Wed 10:31:29 AM 39.9500 -100.0983 256° West 383 441 36,000  Level Denver Center
Wed 10:32:30 AM 39.9281 -100.2050 255° West 382 440 36,000  Level Denver Center
Wed 10:33:32 AM 39.8942 -100.3808 256° West 382 440 36,000  Level Denver Center
Wed 10:34:34 AM 39.8678 -100.5092 255° West 381 438 36,000  Level Denver Center
Wed 10:35:36 AM 39.8375 -100.6564 255° West 380 437 36,000  Level Denver Center
Wed 10:36:37 AM 39.8117 -100.7817 255° West 375 432 36,000  Level Denver Center
Wed 10:37:39 AM 39.7811 -100.9283 255° West 375 432 36,000  Level Denver Center
Wed 10:38:41 AM 39.7561 -101.0561 256° West 380 437 36,000  Level Denver Center
Wed 10:39:43 AM 39.7300 -101.1792 255° West 371 427 36,000  Level Denver Center
Wed 10:40:44 AM 39.6986 -101.3253 254° West 373 429 36,000  Level Denver Center
Wed 10:41:46 AM 39.6731 -101.4519 255° West 376 433 36,000  Level Denver Center
Wed 10:42:48 AM 39.6411 -101.5964 254° West 372 428 36,000  Level Denver Center
Wed 10:43:50 AM 39.6153 -101.7222 255° West 376 433 36,000  Level Denver Center
Wed 10:44:52 AM 39.5847 -101.8675 255° West 376 433 36,000  Level Denver Center
Wed 10:46:06 AM 39.5572 -101.9925 254° West 376 433 36,000  Level Denver Center
Wed 10:47:08 AM 39.5211 -102.1583 254° West 376 433 36,000  Level Denver Center
Wed 10:48:10 AM 39.4944 -102.2850 255° West 380 437 36,000  Level Denver Center
Wed 10:49:12 AM 39.4611 -102.4283 253° West 375 432 36,000  Level Denver Center
Wed 10:50:14 AM 39.4322 -102.5625 254° West 383 441 36,000  Level Denver Center
Wed 10:51:16 AM 39.4022 -102.6933 254° West 376 433 36,000  Level Denver Center
Wed 10:52:18 AM 39.3744 -102.8242 255° West 375 432 36,000  Level Denver Center
Wed 10:53:20 AM 39.3447 -102.9536 254° West 372 428 36,000  Level Denver Center
Wed 10:54:22 AM 39.3158 -103.0833 254° West 372 428 36,000  Level Denver Center
Wed 10:55:24 AM 39.2806 -103.2306 253° West 365 420 36,000  Level Denver Center
Wed 10:56:26 AM 39.2531 -103.3583 255° West 366 421 36,000  Level Denver Center
Wed 10:57:28 AM 39.2225 -103.4858 253° West 367 422 36,000  Level Denver Center
Wed 10:58:30 AM 39.1925 -103.6125 253° West 367 422 36,000  Level Denver Center
Wed 10:59:32 AM 39.1631 -103.7439 254° West 377 434 36,000  Level Denver Center
Wed 11:00:34 AM 39.1317 -103.8747 253° West 378 435 36,000  Level Denver Center
Wed 11:01:36 AM 39.1000 -104.0067 253° West 381 438 36,000  Level Denver Center
Wed 11:02:38 AM 39.0697 -104.1381 254° West 380 437 36,000  Level Denver Center
Wed 11:03:40 AM 39.0375 -104.2689 252° West 377 434 36,000  Level Denver Center
Wed 11:04:42 AM 39.0017 -104.4214 253° West 378 435 36,000  Level Denver Center
Wed 11:05:44 AM 38.9689 -104.5550 253° West 383 441 36,000  Level Denver Center
Wed 11:06:46 AM 38.9369 -104.6853 253° West 379 436 36,000  Level Denver Center
Wed 11:07:48 AM 38.9053 -104.8156 253° West 377 434 36,000  Level Denver Center
Wed 11:08:50 AM 38.8733 -104.9453 252° West 375 432 36,000  Level Denver Center
Wed 11:09:52 AM 38.8417 -105.0742 253° West 375 432 36,000  Level Denver Center
Wed 11:10:54 AM 38.8108 -105.2014 253° West 371 427 36,000  Level Denver Center
Wed 11:11:56 AM 38.7786 -105.3269 252° West 368 423 36,000  Level Denver Center
Wed 11:12:58 AM 38.7481 -105.4519 253° West 364 419 36,000  Level Denver Center
Wed 11:14:00 AM 38.7114 -105.5972 252° West 365 420 36,000  Level Denver Center
Wed 11:15:02 AM 38.6797 -105.7228 252° West 367 422 36,000  Level Denver Center
Wed 11:16:04 AM 38.6472 -105.8486 252° West 370 426 36,000  Level Denver Center
Wed 11:17:06 AM 38.6147 -105.9722 251° West 364 419 36,000  Level Denver Center
Wed 11:18:08 AM 38.5853 -106.0892 252° West 363 418 36,000  Level Denver Center
Wed 11:19:10 AM 38.5522 -106.2142 251° West 368 423 36,000  Level Denver Center
Wed 11:20:12 AM 38.5192 -106.3406 252° West 373 429 36,000  Level Denver Center
Wed 11:21:14 AM 38.4806 -106.4903 252° West 370 426 36,000  Level Denver Center
Wed 11:22:16 AM 38.4472 -106.6150 251° West 370 426 36,000  Level Denver Center
Wed 11:23:18 AM 38.4133 -106.7392 251° West 370 426 36,000  Level Denver Center
Wed 11:24:20 AM 38.3811 -106.8647 252° West 371 427 36,000  Level Denver Center
Wed 11:25:22 AM 38.3547 -106.9669 252° West 376 433 36,000  Level Denver Center
Wed 11:26:25 AM 38.3133 -107.1197 251° West 379 436 36,000  Level Denver Center
Wed 11:27:27 AM 38.2719 -107.2694 251° West 379 436 36,000  Level Denver Center
Wed 11:28:29 AM 38.2408 -107.3906 252° West 377 434 36,000  Level Denver Center
Wed 11:29:31 AM 38.2008 -107.5322 250° West 378 435 36,000  Level Denver Center
Wed 11:30:33 AM 38.1675 -107.6547 251° West 380 437 36,000  Level Denver Center
Wed 11:31:35 AM 38.1300 -107.7931 251° West 373 429 36,000  Level Denver Center
Wed 11:32:37 AM 38.0958 -107.9142 250° West 378 435 36,000  Level Denver Center
Wed 11:33:39 AM 38.0625 -108.0369 251° West 375 432 36,000  Level Denver Center
Wed 11:34:41 AM 38.0228 -108.1767 250° West 377 434 36,000  Level Denver Center
Wed 11:35:43 AM 37.9892 -108.2978 251° West 379 436 36,000  Level Denver Center
Wed 11:36:44 AM 37.9600 -108.3989 250° West 382 440 36,000  Level Denver Center
Wed 11:37:47 AM 37.9139 -108.5586 250° West 380 437 36,000  Level Denver Center
Wed 11:38:49 AM 37.8753 -108.7014 251° West 383 441 36,000  Level Denver Center
Wed 11:39:51 AM 37.8400 -108.8219 250° West 383 441 36,000  Level Denver Center
Wed 11:41:00 AM 37.7894 -108.9698 256° West  Level FlightAware Approximate
Wed 11:41:55 AM 37.7686 -109.0911 256° West 394 453 36,000  Level Denver Center
Wed 11:43:00 AM 37.7326 -109.2354 253° West  Level FlightAware Approximate
Wed 11:43:59 AM 37.7017 -109.3603 253° West 389 448 36,000  Level Denver Center
Wed 11:45:01 AM 37.6664 -109.5031 253° West 384 442 36,000  Level Denver Center
Wed 11:46:03 AM 37.6344 -109.6283 252° West 389 448 36,000  Level Denver Center
Wed 11:47:05 AM 37.6036 -109.7511 252° West 388 447 36,000  Level Denver Center
Wed 11:48:07 AM 37.5675 -109.8947 252° West 387 445 36,000  Level Denver Center
Wed 11:49:38 AM 37.5197 -110.0772 252° West 384 442 36,000 -192 Level Los Angeles Center
Wed 11:50:12 AM 37.4992 -110.1578 252° West 382 440 35,600 -813 Descending Denver Center
Wed 11:51:14 AM 37.4669 -110.2814 252° West 386 444 34,700 -941 Descending Denver Center
Wed 11:52:45 AM 37.4153 -110.4869 252° West 386 444 33,200 -1,016 Descending Los Angeles Center
Wed 11:53:18 AM 37.3939 -110.5647 251° West 389 448 32,600 -581 Descending Denver Center
Wed 11:54:49 AM 37.3472 -110.7439 252° West 387 445 32,000 -235 Descending Los Angeles Center
Wed 11:55:51 AM 37.3125 -110.8733 251° West 389 448 32,000  Level Los Angeles Center
Wed 11:56:24 AM 37.2914 -110.9519 251° West 392 451 32,000  Level Denver Center
Wed 11:57:25 AM 37.2636 -111.0544 251° West 391 450 32,000  Level Denver Center
Wed 11:58:57 AM 37.2014 -111.2889 252° West 393 452 32,000  Level Los Angeles Center
Wed 11:59:30 AM 37.1878 -111.3397 251° West 393 452 32,000  Level Denver Center
Wed 12:01:02 PM 37.1308 -111.5472 251° West 393 452 32,000  Level Los Angeles Center
Wed 12:02:04 PM 37.0969 -111.6769 252° West 392 451 32,000  Level Los Angeles Center
Wed 12:03:06 PM 37.0597 -111.8094 251° West 399 459 32,000  Level Los Angeles Center
Wed 12:03:38 PM 37.0378 -111.8894 251° West 400 460 32,000 -774 Level Denver Center
Wed 12:05:10 PM 37.0089 -112.1072 261° West 403 464 30,400 -1,052 Descending Los Angeles Center
Wed 12:06:12 PM 37.0364 -112.2328 285° West 382 440 29,300 -1,161 Descending Los Angeles Center
Wed 12:07:14 PM 37.0261 -112.3569 264° West 387 445 28,000 -629 Descending Los Angeles Center
Wed 12:08:16 PM 36.9861 -112.4836 248° West 392 451 28,000  Level Los Angeles Center
Wed 12:09:19 PM 36.9542 -112.6125 253° West 389 448 28,000  Level Los Angeles Center
Wed 12:10:21 PM 36.9153 -112.7694 253° West 392 451 28,000  Level Los Angeles Center
Wed 12:11:23 PM 36.8803 -112.9053 252° West 403 464 28,000  Level Los Angeles Center
Wed 12:12:25 PM 36.8453 -113.0417 252° West 409 471 28,000  Level Los Angeles Center
Wed 12:13:27 PM 36.8114 -113.1758 253° West 407 468 28,000  Level Los Angeles Center
Wed 12:14:29 PM 36.7753 -113.3122 252° West 412 474 28,000  Level Los Angeles Center
Wed 12:15:31 PM 36.7417 -113.4503 253° West 415 478 28,000 -823 Level Los Angeles Center
Wed 12:16:33 PM 36.6992 -113.6153 252° West 417 480 26,300 -1,935 Descending Los Angeles Center
Wed 12:17:35 PM 36.6650 -113.7447 252° West 403 464 24,000 -1,984 Descending Los Angeles Center
Wed 12:18:37 PM 36.6378 -113.8433 251° West 388 447 22,200 -2,081 Descending Los Angeles Center
Wed 12:19:39 PM 36.6017 -113.9872 253° West 370 426 19,700 -2,177 Descending Los Angeles Center
Wed 12:20:41 PM 36.5681 -114.1025 250° West 359 413 17,700 -1,984 Descending Los Angeles Center
Wed 12:21:43 PM 36.5178 -114.2108 240° Southwest 361 415 15,600 -2,129 Descending Los Angeles Center
Wed 12:22:45 PM 36.4669 -114.3208 240° Southwest 355 409 13,300 -2,021 Descending Los Angeles Center
Wed 12:23:18 PM 36.4372 -114.3931 243° Southwest 339 390 12,400 -968 Descending Los Angeles Center
Wed 12:23:47 PM 36.4203 -114.4203 232° Southwest 340 391 12,300 -500 Descending Los Angeles Center
Wed 12:24:18 PM 36.3872 -114.4797 235° Southwest 309 356 11,900 -387 Descending Los Angeles Center
Wed 12:24:49 PM 36.3447 -114.4931 194° South 314 361 11,900 -590 Level Los Angeles Center
Wed 12:25:19 PM 36.3064 -114.5044 193° South 307 353 11,300 -1,452 Descending Los Angeles Center
Wed 12:25:51 PM 36.2614 -114.5111 187° South 306 352 10,400 -1,527 Descending Los Angeles Center
Wed 12:26:14 PM 36.2283 -114.5231 196° South 307 353 9,900 -1,355 Descending Los Angeles Center
Wed 12:26:53 PM 36.1914 -114.5600 219° Southwest 296 341 9,000 -1,254 Descending Los Angeles Center
Wed 12:27:21 PM 36.1639 -114.6033 232° Southwest 300 345 8,500 -871 Descending Los Angeles Center
Wed 12:27:55 PM 36.1383 -114.6381 228° Southwest 292 336 8,100 -545 Descending Los Angeles Center
Wed 12:28:16 PM 36.1144 -114.6733 230° Southwest 309 356 8,000 -97 Descending Los Angeles Center
Wed 12:28:57 PM 36.0811 -114.7181 227° Southwest 299 344 8,000 -100 Level Los Angeles Center
Wed 12:29:16 PM 36.0731 -114.7594 256° West 270 311 7,900 -871 Descending Los Angeles Center
Wed 12:29:59 PM 36.0742 -114.8086 272° West 278 320 7,100 -1,164 Descending Los Angeles Center
Wed 12:30:23 PM 36.0731 -114.8578 268° West 259 298 6,600 -1,161 Descending Los Angeles Center
Wed 12:31:01 PM 36.0744 -114.8947 273° West 263 303 5,900 -1,180 Descending Los Angeles Center
Wed 12:31:24 PM 36.0733 -114.9375 268° West 223 257 5,400 -1,161 Descending Los Angeles Center
Wed 12:32:03 PM 36.0714 -114.9783 267° West 220 253 4,700 -1,082 Descending Los Angeles Center
Wed 12:32:25 PM 36.0731 -114.9961 277° West 177 204 4,300 -1,258 Descending Los Angeles Center
Wed 12:33:05 PM 36.0747 -115.0314 273° West 178 205 3,400 -1,200 Descending Los Angeles Center
Wed 12:33:20 PM 36.0733 -115.0467 264° West 155 178 3,200 -774 Descending Los Angeles Center
Wed 12:34:07 PM 36.0739 -115.0864 271° West 164 189 2,600 -716 Descending Los Angeles Center
Wed 12:35:09 PM 36.0747 -115.1403 271° West 160 184 1,900 -677 Descending Los Angeles Center

Login

Don't have an account? Register now (free) for customized features, flight alerts, and more!